Regional Weather Roundup
Issued by NWS Charleston, SC

Current Version | Previous Version | Graphics & Text | Print | Product List | Glossary On
Versions: 1 2 3 4 5 6 7 8 9 10 11 12 13 14 15 16 17 18 19 20 21 22 23 24 25 26 27 28 29 30 31 32 33 34 35 36 37 38 39 40 41 42 43 44 45 46 47 48 49 50
000
ASUS42 KCHS 301013
RWRCHS

REGIONAL WEATHER ROUNDUP
NATIONAL WEATHER SERVICE CHARLESTON SC
600 AM EDT MON MAY 30 2016

NOTE: "FAIR" INDICATES FEW OR NO CLOUDS BELOW 12,000 FEET WITH NO
SIGNIFICANT WEATHER AND/OR OBSTRUCTIONS TO VISIBILITY.

NOT ALL STATIONS ARE QUALITY CONTROLLED. USE DATA WITH CAUTION...
ESPECIALLY DEWPOINT OBSERVATIONS.

SCZ027-030-031-034>040-042>050-301100-
...SOUTHEAST SOUTH CAROLINA...

CITY           SKY/WX    TMP DP  RH WIND       PRES   REMARKS
N CHARLESTON   MOCLDY    71  68  90 W7        29.90R
WATERFRONT PRK   N/A     71  69  93 VRB2      29.88R
MOUNT PLEASANT CLOUDY    70  70 100 CALM      29.90R
JOHNS ISLAND   CLOUDY    70  70 100 W6        29.91R
PINOPOLIS      NOT AVBL
MONCKS CORNER  RAIN      66  64  94 CALM      29.90R
SUMMERVILLE    NOT AVBL
BEAUFORT MCAS  LGT RAIN  69  67  93 W9        29.93R
BEAUFORT ARPT  RAIN      68  68 100 W7        29.93R
HILTON HEAD IS NOT AVBL
WALTERBORO     CLOUDY    70  70 100 NW6       29.93R
ALLENDALE      CLOUDY    68  66  94 CALM      29.94R

...SOUTHERN MIDLANDS AND PEE DEE...

CITY           SKY/WX    TMP DP  RH WIND       PRES   REMARKS
GEORGETOWN     PTSUNNY   68  68 100 S3        29.90S
KINGSTREE      DRIZZLE   70  68  94 N3        29.89R
ORANGEBURG     LGT RAIN  68  66  93 N7        29.93R
BARNWELL       FAIR      70  70 100 NW3       29.95R
AIKEN          FAIR      63  61  94 N3        30.00S
MANNING        DRIZZLE   68  68 100 NW5       29.91R
COLUMBIA       CLOUDY    70  63  78 N6        29.95R
SUMTER         CLOUDY    66  64  94 N9        29.91S
FLORENCE       CLOUDY    72  70  93 NE9       29.92R
MYRTLE BEACH   CLOUDY    73  64  73 S14       29.93R
N MYRTLE BEACH CLOUDY    75  70  84 SE10      29.91S

$$

GAZ063-065-086>088-099>101-113>116-118-119-134>141-150-301100-
...SOUTHEAST GEORGIA...

CITY           SKY/WX    TMP DP  RH WIND       PRES   REMARKS
SAVANNAH ARPT  CLOUDY    68  64  87 W6        29.96R
HUNTER AAF     CLOUDY    68  67  98 W5        29.94R
FORT STEWART   CLOUDY    70  62  75 CALM      29.95R
STATESBORO     CLOUDY    68  66  93 W3        29.97R
SYLVANIA       CLOUDY    69  66  89 NW5       29.97R
CLAXTON        CLOUDY    67  65  94 SW3       29.97S

...CSRA...CENTRAL AND FAR SOUTHEAST GEORGIA...

CITY           SKY/WX    TMP DP  RH WIND       PRES   REMARKS
THOMSON        MOCLDY    62  62 100 NW3       30.05R
AUGUSTA-BUSH   PTCLDY    65  62  90 NW6       29.96S
AUGUSTA-DANIEL PTCLDY    67  61  81 NW8       29.98R
SWAINSBORO     PTSUNNY   64  63  94 CALM      29.99S
VIDALIA        MOCLDY    70  61  73 NW3       29.99R
EASTMAN        FOG      N/A N/A N/A CALM      30.02S VSB 1
HAZLEHURST     FAIR      67  66  96 CALM      29.98R
ALMA           CLEAR     65  63  93 CALM      29.99R
WAYCROSS       MOCLDY    65  65  97 CALM      29.98S
JESUP          CLOUDY    66  59  77 NW3       29.97S
BAXLEY         FAIR      70  63  78 CALM      29.98R
BRUNSWICK      CLOUDY    75  64  69 CALM      29.97S
SAINT SIMONS   CLOUDY    72  62  71 W3        29.96R

$$

SCZ027-028-034-036>038-045-046-048>050-GAZ119-141-301100-
...LAKE AND SUPPLEMENTAL COASTAL OBSERVATIONS...

STATION/POSITION TIME  TEMP    WIND        PRES    WAVE   SWELL
                       AIR SEA DIR/SP/G            HT/PER HT/PER/DIR
                 (UTC) (F)     (DEG/KT/KT) (MB)    (FT/S) (FT/S/D)
WINYAH BAY       NOT AVBL
LAKE MURRAY      0900   68     340/  2/  8 1014.2R
ACE BASIN NERRS  NOT AVBL
FORT PULASKI     0900   70 75  250/  6/  8 1014.2R
SAPELO ISLAND    0900   73     300/  6     1014.0S

$$

ANZ835-935-AMZ111-154-330-350-352-354-370-450-454-472-301100-
...C-MAN AND BUOY OBSERVATIONS...

STATION/POSITION TIME  TEMP    WIND        PRES    WAVE   SWELL
                       AIR SEA DIR/SP/G            HT/PER HT/PER/DIR
                 (UTC) (F)     (DEG/KT/KT) (MB)    (FT/S) (FT/S/D)
BUOY 41004       0950   74 77  220/ 16/ 17 1012.2R   5/ 6   2/ 9
BUOY 41008       0950   74 75  270/ 10/ 12 1013.9R   2/ 9   2/ 90/ 9
FOLLY BEACH CMAN 0900   70     280/  1/  3 1012.3R
CAPERS NEARSHORE 0908   72 76  260/  6/ 10 1011.7S
FRIPP NEARSHORE  0908   71 75  280/ 12/ 16 1012.4R


STATION/POSITION TIME  TEMP    WIND        PRES    WAVE   SWELL
                       AIR SEA DIR/SP/G            HT/PER HT/PER/DIR
                 (UTC) (F)     (DEG/KT/KT) (MB)    (FT/S) (FT/S/D)
5E ST. MARYS GA  0901      78                N/A     2/ 8
FRYING PAN BUOY  0900   78 78  180/ 16/ 17 1013.3F
BUOY 41025       0950   75 81  150/ 17/ 23 1015.9F   5/ 9   3/140/ 9
CAPE LOOKOUT NC  0900   74     210/  5/  7 1014.9F
BUOY 41002       0950   73 76  140/  8/ 10 1016.2R   4/ 8   3/100/ 8
BUOY 41010       0920   78 79  210/  8/ 10 1015.4R
ST AUGUSTINE FL  1000   71 79  240/  7/  8 1016.0R


$$




USA.gov is the U.S. government's official web portal to all federal, state and local government web resources and services.